Date String (YYYY-MM-DD hh:mm:ss) UTC,Instrument flags,Ambient pressure (hPa),Sample flow (lpm),Bypass flow (lpm),Sample temperature (°C),Ambient temperature (°C),ASC tube jacket temperature (°C),LED temperature (°C),Box temperature (°C),Sample RH (%),Span deviation,Mass concentration (μg/m³),Mass concentration (μg/m³),Mass concentration (μg/m³)
DateTimeUTC,F1_M11,P_M11,Q1_M11,Q2_M11,T1_M11,T2_M11,T3_M11,T4_M11,T5_M11,U1_M11,ZSPAN_M11,X2_M11,X0_M11,X1_M11
2021-11-26 00:00:00,,0831.5,4.99,0.00,28.6,27.7,00.0,37.6,30.3,05.9,0000.0,0000.92,0003.04,0000.62
2021-11-26 00:01:00,,0831.5,5.00,0.00,28.5,27.7,00.0,37.6,30.3,05.9,0000.0,0000.88,0002.81,0000.61
2021-11-26 00:02:00,,0831.5,5.01,0.00,28.5,27.7,00.0,37.6,30.3,05.8,0000.0,0000.92,0003.01,0000.62
2021-11-26 00:03:00,,0831.5,4.99,0.00,28.5,27.7,00.0,37.5,30.3,05.8,0000.0,0000.96,0003.87,0000.62
2021-11-26 00:04:00,,0831.5,5.00,0.00,28.5,27.7,00.0,37.5,30.3,05.8,0000.0,0000.95,0004.05,0000.62
2021-11-26 00:05:00,,0831.5,5.00,0.00,28.5,27.7,00.0,37.5,30.3,05.8,0000.0,0000.94,0003.72,0000.63
2021-11-26 00:06:00,,0831.6,5.00,0.00,28.5,27.7,00.0,37.5,30.3,05.8,0000.0,0000.92,0003.80,0000.63
2021-11-26 00:07:00,,0831.6,5.00,0.00,28.5,27.7,00.0,37.5,30.3,05.8,0000.0,0000.94,0003.91,0000.63
2021-11-26 00:08:00,,0831.7,5.01,0.00,28.5,27.7,00.0,37.5,30.3,05.8,0000.0,0000.98,0004.08,0000.63
2021-11-26 00:09:00,,0831.7,4.99,0.00,28.5,27.7,00.0,37.5,30.3,05.8,0000.0,0000.99,0004.20,0000.64
2021-11-26 00:10:00,,0831.7,5.01,0.00,28.5,27.7,00.0,37.5,30.3,05.8,0000.0,0001.00,0005.28,0000.63
2021-11-26 00:11:00,,0831.7,5.00,0.00,28.5,27.7,00.0,37.5,30.3,05.8,0000.0,0001.02,0005.25,0000.63
2021-11-26 00:12:00,,0831.7,5.00,0.00,28.5,27.7,00.0,37.5,30.3,05.9,0000.0,0001.07,0005.71,0000.63
2021-11-26 00:13:00,,0831.7,5.01,0.00,28.5,27.7,00.0,37.5,30.3,05.9,0000.0,0001.04,0005.91,0000.62
2021-11-26 00:14:00,,0831.7,5.00,0.00,28.5,27.6,00.0,37.5,30.3,05.9,0000.0,0001.03,0005.01,0000.63
2021-11-26 00:15:00,,0831.7,5.00,0.00,28.5,27.6,00.0,37.5,30.2,06.0,0000.0,0001.05,0003.86,0000.63
2021-11-26 00:16:00,,0831.7,4.99,0.00,28.5,27.6,00.0,37.5,30.2,06.0,0000.0,0001.06,0003.77,0000.62
2021-11-26 00:17:00,,0831.8,4.99,0.00,28.4,27.6,00.0,37.5,30.1,06.0,0000.0,0001.04,0003.66,0000.61
2021-11-26 00:18:00,,0831.7,5.00,0.00,28.4,27.5,00.0,37.5,30.1,06.0,0000.0,0001.01,0003.57,0000.61
2021-11-26 00:19:00,,0831.7,4.99,0.00,28.4,27.5,00.0,37.5,30.1,06.0,0000.0,0000.99,0003.52,0000.62
2021-11-26 00:20:00,,0831.7,5.01,0.00,28.4,27.4,00.0,37.5,30.1,06.0,0000.0,0000.97,0003.38,0000.61
2021-11-26 00:21:00,,0831.8,4.99,0.00,28.3,27.4,00.0,37.4,30.1,06.0,0000.0,0000.99,0002.43,0000.61
2021-11-26 00:22:00,,0831.7,5.01,0.00,28.3,27.4,00.0,37.4,30.0,06.0,0000.0,0000.98,0002.44,0000.61
2021-11-26 00:23:00,,0831.7,4.99,0.00,28.3,27.4,00.0,37.4,30.0,06.0,0000.0,0000.93,0001.94,0000.61
2021-11-26 00:24:00,,0831.7,5.02,0.00,28.3,27.3,00.0,37.4,29.9,06.0,0000.0,0000.92,0001.69,0000.61
2021-11-26 00:25:00,,0831.7,5.00,0.00,28.2,27.3,00.0,37.4,29.9,06.1,0000.0,0000.92,0002.43,0000.60
2021-11-26 00:26:00,,0831.8,4.99,0.00,28.2,27.3,00.0,37.3,29.9,06.1,0000.0,0000.90,0002.47,0000.59
2021-11-26 00:27:00,,0831.9,5.01,0.00,28.2,27.3,00.0,37.3,29.9,06.1,0000.0,0000.91,0002.46,0000.59
2021-11-26 00:28:00,,0832.0,4.98,0.00,28.2,27.4,00.0,37.3,29.9,06.1,0000.0,0000.92,0002.43,0000.60
2021-11-26 00:29:00,,0832.0,5.02,0.00,28.2,27.4,00.0,37.3,29.9,06.1,0000.0,0000.90,0002.35,0000.59
2021-11-26 00:30:00,,0832.0,5.00,0.00,28.2,27.4,00.0,37.3,29.9,06.1,0000.0,0000.91,0002.34,0000.58
2021-11-26 00:31:00,,0831.9,4.99,0.00,28.2,27.4,00.0,37.3,30.0,06.1,0000.0,0000.91,0002.33,0000.57
2021-11-26 00:32:00,,0831.9,4.99,0.00,28.2,27.4,00.0,37.3,30.0,06.1,0000.0,0000.85,0002.17,0000.57
2021-11-26 00:33:00,,0832.0,5.00,0.00,28.2,27.4,00.0,37.3,30.0,06.1,0000.0,0000.82,0002.15,0000.57
2021-11-26 00:34:00,,0831.9,5.00,0.00,28.2,27.4,00.0,37.3,30.0,06.1,0000.0,0000.83,0002.25,0000.56
2021-11-26 00:35:00,,0832.0,4.98,0.00,28.3,27.4,00.0,37.3,30.0,06.1,0000.0,0000.86,0002.35,0000.56
2021-11-26 00:36:00,,0832.0,5.01,0.00,28.2,27.4,00.0,37.3,30.0,06.1,0000.0,0000.83,0001.57,0000.56
2021-11-26 00:37:00,,0832.0,5.00,0.00,28.3,27.4,00.0,37.3,30.0,06.0,0000.0,0000.84,0001.60,0000.56
2021-11-26 00:38:00,,0832.1,5.00,0.00,28.3,27.5,00.0,37.3,30.0,06.1,0000.0,0000.82,0002.19,0000.56
2021-11-26 00:39:00,,0832.1,5.00,0.00,28.3,27.5,00.0,37.3,30.0,06.1,0000.0,0000.83,0002.69,0000.56
2021-11-26 00:40:00,,0832.0,5.00,0.00,28.2,27.4,00.0,37.3,30.0,06.1,0000.0,0000.85,0002.73,0000.56
2021-11-26 00:41:00,,0832.1,5.00,0.00,28.2,27.4,00.0,37.3,30.0,06.1,0000.0,0000.82,0002.65,0000.55
2021-11-26 00:42:00,,0832.2,4.99,0.00,28.2,27.4,00.0,37.3,30.0,06.1,0000.0,0000.84,0002.68,0000.56
2021-11-26 00:43:00,,0832.1,5.00,0.00,28.2,27.4,00.0,37.3,30.0,06.1,0000.0,0000.87,0002.81,0000.57
2021-11-26 00:44:00,,0832.1,5.01,0.00,28.2,27.4,00.0,37.3,30.0,06.1,0000.0,0000.89,0002.84,0000.58
2021-11-26 00:45:00,,0832.1,4.98,0.00,28.2,27.4,00.0,37.3,30.0,06.1,0000.0,0000.92,0002.91,0000.59
2021-11-26 00:46:00,,0832.1,5.01,0.00,28.2,27.4,00.0,37.2,29.9,06.1,0000.0,0000.90,0002.92,0000.59
2021-11-26 00:47:00,,0832.1,5.00,0.00,28.2,27.3,00.0,37.2,29.9,06.1,0000.0,0000.90,0002.91,0000.58
2021-11-26 00:48:00,,0832.1,5.00,0.00,28.2,27.3,00.0,37.2,29.8,06.1,0000.0,0000.90,0002.82,0000.58
2021-11-26 00:49:00,,0832.2,5.01,0.00,28.2,27.3,00.0,37.2,29.8,06.2,0000.0,0000.90,0002.22,0000.59
2021-11-26 00:50:00,,0832.2,4.99,0.00,28.2,27.3,00.0,37.2,29.9,06.2,0000.0,0000.90,0001.81,0000.59
2021-11-26 00:51:00,,0832.2,5.00,0.00,28.2,27.3,00.0,37.2,29.9,06.2,0000.0,0000.91,0001.82,0000.58
2021-11-26 00:52:00,,0832.2,5.01,0.00,28.2,27.3,00.0,37.2,29.8,06.2,0000.0,0000.92,0001.84,0000.59
2021-11-26 00:53:00,,0832.2,4.99,0.00,28.2,27.3,00.0,37.2,29.9,06.2,0000.0,0000.91,0001.82,0000.59
2021-11-26 00:54:00,,0832.3,5.00,0.00,28.2,27.3,00.0,37.2,29.9,06.1,0000.0,0000.93,0001.82,0000.58
2021-11-26 00:55:00,,0832.3,5.00,0.00,28.2,27.3,00.0,37.2,29.9,06.2,0000.0,0000.95,0001.81,0000.58
2021-11-26 00:56:00,,0832.3,4.99,0.00,28.1,27.3,00.0,37.2,29.8,06.2,0000.0,0000.92,0001.71,0000.59
2021-11-26 00:57:00,,0832.3,5.01,0.00,28.1,27.3,00.0,37.2,29.8,06.2,0000.0,0000.93,0001.54,0000.61
2021-11-26 00:58:00,,0832.3,4.99,0.00,28.1,27.3,00.0,37.2,29.8,06.3,0000.0,0000.94,0001.58,0000.62
2021-11-26 00:59:00,,0832.2,5.00,0.00,28.1,27.3,00.0,37.2,29.8,06.3,0000.0,0000.95,0001.69,0000.62
